Station HMSA2 - Homer Spit, AK Image indicating link to RSS feed of recent meteorological observations for station HMSA2


Conditions at HMSA2 as of
(8:36 am AKDT)
1636 GMT on 04/14/2024:
     

Click on the graph icon in the table below to see a time series plot of the last five days of that observation.

5-day plot - Wind Direction Wind Direction (WDIR): NE ( 50 deg true )
5-day plot - Wind Speed Wind Speed (WSPD): 4.1 kts
5-day plot - Wind Gust Wind Gust (GST): 7.0 kts
5-day plot - Air Temperature Air Temperature (ATMP): 35.2 °F
5-day plot - Dew Point Dew Point (DEWP): 26.8 °F
5-day plot - Wind Chill Wind Chill (CHILL): 31.1 °F
5-day plot - Wind Speed at 10 Meters Wind Speed at 10 meters (WSPD10M): 3.9 kts
5-day plot - Wind Speed at 20 Meters Wind Speed at 20 meters (WSPD20M): 5.8 kts
5-day plot -  Wind Speed, Wind Gust and Atmospheric Pressure Combined plot of Wind Speed, Gust, and Air Pressure
Previous observations
TIME
(AKDT)
5-day plot - Wind Direction
WDIR
 
5-day plot - Wind Speed
WSPD
kts
5-day plot - Wind Gust
GST
kts
5-day plot - Wave Height
WVHT
ft
5-day plot - Dominant Wave Period
DPD
sec
5-day plot - Average Wave Period
APD
sec
5-day plot - Mean Wave Direction
MWD
 
5-day plot - Atmospheric Pressure
PRES
in
5-day plot - Pressure Tendency
PTDY
in
5-day plot - Air Temperature
ATMP
°F
5-day plot - Water Temperature
WTMP
°F
5-day plot - Dew Point
DEWP
°F
5-day plot - Salinity
SAL
psu
5-day plot - Visibility
VIS
nmi
5-day plot - Tide (above MLLW)
TIDE
ft
2024-04-14 08:25 amENE 5.1 8.0------ 34.5- 26.6---
2024-04-14 08:15 amENE 6.0 8.0------ 34.2- 26.4---
2024-04-14 08:05 amENE 6.0 8.0------ 34.0- 26.4---
2024-04-14 07:55 am NE 6.0 8.0------ 34.0- 26.6---
2024-04-14 07:45 am NE 6.0 8.0------ 33.8- 26.1---
2024-04-14 07:35 am NE 7.0 8.0------ 33.6- 25.9---
2024-04-14 07:25 am NE 6.0 8.0------ 33.6- 26.2---
2024-04-14 07:15 am NE 5.1 8.0------ 34.2- 26.4---
2024-04-14 07:05 am NE 4.1 7.0------ 34.0- 25.7---
2024-04-14 06:55 am NE 4.1 6.0------ 33.8- 25.7---
2024-04-14 06:45 am E 2.9 4.1------ 33.8- 25.5---
2024-04-14 06:35 am E 2.9 4.1------ 33.8- 25.7---
2024-04-14 06:25 am E 2.9 5.1------ 33.3- 25.3---
2024-04-14 06:15 am E 2.9 5.1------ 33.3- 25.2---
2024-04-14 06:05 amESE 4.1 6.0------ 33.3- 25.2---
2024-04-14 05:55 am SE 4.1 7.0------ 33.8- 25.7---
2024-04-14 05:45 amSSE 4.1 7.0------ 34.2- 26.1---
2024-04-14 05:35 am S 4.1 6.0------ 34.3- 26.2---
2024-04-14 05:25 amSSW 1.9 5.1------ 34.7- 26.8---
2024-04-14 05:15 am S 2.9 5.1------ 34.7- 26.6---
2024-04-14 05:05 am S 2.9 4.1------ 34.7- 26.6---
2024-04-14 04:55 am S 1.9 4.1------ 34.7- 26.6---
2024-04-14 04:45 am- 0.0 1.0------ 35.1- 27.0---
2024-04-14 04:35 am- 0.0 1.9------ 35.1- 27.0---
2024-04-14 04:25 amWNW 1.9 2.9------ 34.9- 27.0---
2024-04-14 04:15 am NW 1.9 4.1------ 35.1- 27.3---
2024-04-14 04:05 amNNW 2.9 5.1------ 35.1- 27.3---
2024-04-14 03:55 amNNW 1.0 2.9------ 35.2- 27.0---
2024-04-14 03:45 amNNE 1.9 4.1------ 35.2- 27.1---
2024-04-14 03:35 am NE 4.1 6.0------ 35.1- 27.0---
2024-04-14 03:25 amNNE 4.1 6.0------ 35.1- 26.6---
2024-04-14 03:15 am NE 4.1 6.0------ 35.2- 26.6---
2024-04-14 03:05 am NE 4.1 5.1------ 35.1- 26.2---
2024-04-14 02:55 am NE 4.1 6.0------ 35.1- 26.2---
2024-04-14 02:45 amNNE 5.1 7.0------ 35.2- 26.2---
2024-04-14 02:35 amNNE 4.1 5.1------ 35.2- 25.7---
2024-04-14 02:25 am N 4.1 5.1------ 35.2- 25.7---
2024-04-14 02:15 amNNE 4.1 5.1------ 35.4- 26.1---
2024-04-14 02:05 amNNE 2.9 4.1------ 35.6- 26.4---
2024-04-14 01:55 am NE 2.9 4.1------ 35.8- 26.8---
2024-04-14 01:45 amNNE 1.9 4.1------ 35.8- 26.2---
2024-04-14 01:35 amNNE 1.0 1.9------ 35.8- 25.5---
2024-04-14 01:25 am N 1.9 4.1------ 35.8- 25.5---
2024-04-14 01:15 am N 1.9 2.9------ 36.0- 25.2---
2024-04-14 01:05 amNNE 1.9 1.9------ 36.0- 25.0---
2024-04-14 12:55 am NE 1.9 2.9------ 35.8- 25.2---
2024-04-14 12:35 amWNW 1.0 1.9------ 36.0- 24.8---
2024-04-14 12:25 am W 1.9 1.9------ 36.0- 25.0---
2024-04-14 12:17 amWNW 1.9 2.9------ 36.0- 25.0---
2024-04-14 12:05 amWNW 1.9 2.9------ 36.0- 24.8---
2024-04-13 11:55 pmWNW 1.9 2.9------ 35.8- 24.8---
2024-04-13 11:45 pmWNW 2.9 4.1------ 36.0- 25.0---
2024-04-13 11:35 pm NW 2.9 4.1------ 36.0- 25.0---
2024-04-13 11:25 pm NW 2.9 5.1------ 36.1- 25.2---
2024-04-13 11:15 pmWNW 4.1 6.0------ 36.3- 25.7---
2024-04-13 11:05 pmWNW 4.1 6.0------ 36.5- 25.7---
2024-04-13 10:55 pmWNW 5.1 8.0------ 36.5- 25.7---
2024-04-13 10:45 pmWNW 6.0 8.0------ 36.7- 25.9---
2024-04-13 10:35 pmWNW 6.0 8.9------ 36.7- 25.3---
2024-04-13 10:25 pmWNW 7.0 11.1------ 36.7- 25.2---
2024-04-13 10:15 pm W 8.0 11.1------ 36.7- 25.3---
2024-04-13 10:05 pm W 8.0 13.0------ 36.9- 25.5---
2024-04-13 09:55 pm W 8.0 14.0------ 37.0- 25.5---
2024-04-13 09:45 pmWSW 8.9 14.0------ 37.0- 25.7---
2024-04-13 09:35 pm W 8.9 12.0------ 37.0- 25.5---
2024-04-13 09:25 pm W 8.9 14.0------ 37.0- 25.9---
2024-04-13 09:15 pmWSW 11.1 15.9------ 37.0- 25.7---
2024-04-13 09:05 pmWSW 12.0 17.1------ 37.0- 25.7---
2024-04-13 08:55 pmWSW 13.0 17.1------ 37.2- 25.5---
2024-04-13 08:45 pm W 11.1 17.1------ 37.4- 25.9---
2024-04-13 08:35 pm W 9.9 19.0------ 37.6- 26.4---
2024-04-13 08:25 pm W 11.1 15.0------ 37.2- 26.4---
2024-04-13 08:15 pm W 13.0 17.1------ 37.4- 25.9---
2024-04-13 08:05 pm W 13.0 18.1------ 37.4- 25.3---
2024-04-13 07:55 pm W 13.0 19.0------ 37.2- 25.7---
2024-04-13 07:45 pm W 14.0 19.0------ 37.2- 24.8---
2024-04-13 07:35 pm W 14.0 19.0------ 37.2- 25.2---
2024-04-13 07:25 pm W 14.0 20.0------ 37.2- 25.2---
2024-04-13 07:15 pm W 13.0 20.0------ 37.4- 25.3---
2024-04-13 07:05 pm W 13.0 21.0------ 37.4- 25.5---
2024-04-13 06:55 pm W 12.0 20.0------ 37.2- 25.5---
2024-04-13 06:45 pm W 13.0 20.0------ 36.9- 25.5---
2024-04-13 06:35 pm W 13.0 19.0------ 36.7- 25.9---
2024-04-13 06:25 pm W 13.0 19.0------ 36.7- 25.5---
2024-04-13 06:15 pm W 13.0 20.0------ 36.7- 25.7---
2024-04-13 06:05 pm W 14.0 22.9------ 36.7- 26.1---
2024-04-13 05:55 pm W 15.0 22.0------ 36.5- 26.1---
2024-04-13 05:45 pm W 12.0 21.0------ 37.0- 26.4---
2024-04-13 05:35 pmWSW 4.1 8.9------ 37.6- 28.0---
2024-04-13 05:25 pm S 2.9 7.0------ 37.2- 28.8---
2024-04-13 05:15 pm S 4.1 7.0------ 36.7- 28.4---
2024-04-13 05:05 pmSSE 4.1 6.0------ 36.5- 28.6---
2024-04-13 04:55 pm SE 2.9 6.0------ 37.6- 29.8---
2024-04-13 04:45 pmESE 2.9 7.0------ 37.9- 30.9---
2024-04-13 04:35 pmESE 4.1 8.9------ 37.4- 30.9---
2024-04-13 04:25 pmESE 2.9 7.0------ 36.7- 30.2---
2024-04-13 04:15 pmSSE 4.1 8.0------ 35.8- 29.3---
2024-04-13 03:55 pm SE 4.1 6.0------ 35.8- 28.4---
2024-04-13 03:45 pm SE 1.9 5.1------ 36.3- 29.3---
2024-04-13 03:35 pm E 1.9 5.1------ 36.0- 29.7---
2024-04-13 03:25 pm E 4.1 7.0------ 34.9- 29.1---
2024-04-13 03:15 pmENE 6.0 8.9------ 34.3- 28.0---
2024-04-13 03:05 pm NE 7.0 9.9------ 35.2- 27.7---
2024-04-13 02:55 pm NW 2.9 5.1------ 35.2- 27.5---
2024-04-13 02:45 pmWNW 5.1 8.9------ 34.9- 27.9---
2024-04-13 02:35 pmWNW 8.0 11.1------ 34.5- 27.7---
2024-04-13 02:25 pmWNW 8.9 17.1------ 34.7- 27.3---
2024-04-13 02:15 pmWSW 4.1 11.1------ 36.1- 27.0---
2024-04-13 02:05 pm SW 2.9 6.0------ 36.5- 26.4---
2024-04-13 01:55 pmWNW 1.0 2.9------ 36.5- 25.9---
2024-04-13 01:45 pmWNW 1.9 2.9------ 37.0- 26.4---
2024-04-13 01:35 pmESE 1.9 5.1------ 37.6- 27.1---
2024-04-13 01:25 pmENE 1.9 5.1------ 36.7- 25.9---
2024-04-13 01:15 pm NE 1.9 6.0------ 37.2- 25.9---
2024-04-13 01:05 pm E 1.9 5.1------ 37.0- 26.6---
2024-04-13 12:55 pm NE 4.1 8.9------ 36.7- 25.7---
2024-04-13 12:45 pmNNE 4.1 8.0------ 36.5- 25.3---
2024-04-13 12:35 pm NE 1.9 4.1------ 36.5- 25.2---
2024-04-13 12:25 pm NE 4.1 6.0------ 36.1- 24.8---
2024-04-13 12:15 pm NE 6.0 9.9------ 35.8- 24.6---
2024-04-13 12:05 pmNNE 7.0 12.0------ 35.6- 24.8---
2024-04-13 11:55 am N 7.0 9.9------ 35.2- 24.6---
2024-04-13 11:45 am N 7.0 9.9------ 35.2- 24.3---
2024-04-13 11:35 am N 6.0 8.9------ 35.1- 24.4---
2024-04-13 11:25 am N 6.0 8.9------ 34.9- 24.4---
2024-04-13 11:15 am N 7.0 11.1------ 34.7- 24.4---
2024-04-13 11:05 am N 7.0 9.9------ 34.7- 24.3---
2024-04-13 10:55 amNNE 7.0 8.9------ 34.7- 24.3---
2024-04-13 10:45 amNNE 6.0 9.9------ 34.7- 24.3---
2024-04-13 10:35 am N 6.0 8.9------ 34.5- 24.4---
2024-04-13 10:25 am N 7.0 9.9------ 34.5- 24.6---
2024-04-13 10:15 am N 6.0 8.9------ 34.7- 24.6---
2024-04-13 10:05 am N 5.1 8.0------ 34.7- 24.6---
2024-04-13 09:55 am N 4.1 6.0------ 35.1- 25.0---
2024-04-13 09:45 am N 4.1 6.0------ 34.9- 25.0---
2024-04-13 09:35 am N 4.1 7.0------ 34.7- 24.8---
2024-04-13 09:25 amNNE 2.9 5.1------ 34.5- 25.0---
2024-04-13 09:15 am N 4.1 5.1------ 34.0- 24.8---
2024-04-13 09:05 am N 4.1 7.0------ 33.6- 25.0---
2024-04-13 08:55 am N 6.0 8.0------ 33.6- 25.2---
2024-04-13 08:45 am N 5.1 8.0------ 33.6- 25.3---
2024-04-13 08:35 am NW 4.1 7.0------ 33.3- 25.2---
2024-04-13 08:25 amWNW 5.1 8.0------ 33.1- 25.3---
2024-04-13 08:15 amWNW 6.0 8.0------ 32.9- 25.2---
2024-04-13 08:05 am NW 6.0 8.9------ 33.1- 25.3---
2024-04-13 07:55 amWNW 6.0 8.9------ 33.3- 25.3---